Weather History for Curtin, WE

Change the Weather History Date:

Tuesday, April 16, 2013

  Actual Average Record
Temperature  
Mean Temperature 84 °F -  
Max Temperature 103 °F - - ()
Min Temperature 64 °F - - ()
Cooling Degree Days 18    
Growing Degree Days 34 (Base 50)    
Moisture  
Dew Point 64 °F    
Average Humidity 61    
Maximum Humidity 100    
Minimum Humidity 13    
Precipitation  
Precipitation 0.00 in - - ()
Sea Level Pressure  
Sea Level Pressure 29.79 in    
Wind  
Wind Speed 3 mph ()    
Max Wind Speed 6 mph    
Max Gust Speed -    
T = Trace of Precipitation, MM = Missing Value Source: Averaged Metar Reports

Daily Weather History Graph

Daily Weather History Graph

Search for Another Location

Airport:

Trip Planner

Search our weather history database for the weather conditions in past years. The results will help you decide how hot, cold, wet, or windy it might be!

Date:

Astronomy

Apr. 16, 2013 Rise Set
Actual Time 5:53 AM AWST 5:34 PM AWST
Civil Twilight 5:31 AM AWST 5:56 PM AWST
Nautical Twilight 5:06 AM AWST 6:22 PM AWST
Astronomical Twilight 4:41 AM AWST 6:47 PM AWST
Moon 10:32 AM AWST (4/16) 10:02 PM AWST (4/16)
Length of Visible Light 12h 24m
Length of Day
11h 40m
Waxing Crescent, 28% of the Moon is Illuminated
Apr 16
Waxing Crescent
Apr 18
First Quarter
Apr 26
Full
May 2
Last Quarter
May 10
New

Hourly Weather History & Observations

Time (AWST) Temp. Heat Index Dew Point Humidity Pressure Visibility Wind Dir Wind Speed Gust Speed Precip Events Conditions
12:00 AM 70 °F - 65 °F 81% 29.78 in - NW 3.5 mph - -  
12:00 AM 69.8 °F - 66.2 °F 88% 29.80 in - NW 3.5 mph - N/A   Unknown
1:00 AM 68.0 °F - 66.2 °F 94% 29.77 in - Calm Calm - N/A   Unknown
2:00 AM 68.0 °F - 64.4 °F 88% 29.77 in - North 3.5 mph - N/A   Unknown
3:00 AM 67 °F - 64 °F 86% 29.77 in - Calm Calm - -  
3:00 AM 66.2 °F - 64.4 °F 94% 29.77 in - Calm Calm - N/A   Unknown
4:00 AM 66.2 °F - 64.4 °F 94% 29.80 in - North 4.6 mph - N/A   Unknown
5:00 AM 66.2 °F - 62.6 °F 88% 29.80 in - Calm Calm - N/A   Unknown
6:00 AM 66 °F - 64 °F 93% 29.83 in - NNW 2.3 mph - -  
6:00 AM 66.2 °F - 64.4 °F 94% 29.83 in - NNW 2.3 mph - N/A   Unknown
7:00 AM 73.4 °F - 73.4 °F 100% 29.83 in - WNW 3.5 mph - N/A   Unknown
8:00 AM 82.4 °F 86.3 °F 69.8 °F 66% 29.83 in - West 4.6 mph - N/A   Unknown
9:00 AM 87 °F - 64 °F 37% 29.84 in - WNW 4.6 mph - -  
9:00 AM 87.8 °F 89.4 °F 64.4 °F 46% 29.86 in - WNW 4.6 mph - N/A   Unknown
10:00 AM 93.2 °F 94.9 °F 64.4 °F 38% 29.83 in - NNE 2.3 mph - N/A   Unknown
11:00 AM 93.2 °F 92.6 °F 59.0 °F 32% 29.80 in - SSE 3.5 mph - N/A   Unknown
12:00 PM 99 °F - 61 °F 19% 29.78 in - East 3.5 mph - -  
12:00 PM 98.6 °F 99.4 °F 60.8 °F 29% 29.77 in - East 3.5 mph - N/A   Unknown
1:00 PM 100.4 °F 98.8 °F 55.4 °F 22% 29.74 in - ESE 3.5 mph - N/A   Unknown
2:00 PM 102.2 °F 100.4 °F 53.6 °F 20% 29.74 in - North 5.8 mph - N/A   Unknown
3:00 PM 103 °F - 55 °F 13% 29.72 in - ENE 4.6 mph - -  
3:00 PM 102.2 °F 100.9 °F 55.4 °F 21% 29.71 in - ENE 4.6 mph - N/A   Unknown
4:00 PM 100.4 °F 99.7 °F 57.2 °F 24% 29.71 in - NE 4.6 mph - N/A   Unknown
5:00 PM 93.2 °F 93.3 °F 60.8 °F 34% 29.74 in - NNW 3.5 mph - N/A   Unknown
6:00 PM 87 °F - 69 °F 46% 29.76 in - NW 5.8 mph - -  
6:00 PM 87.8 °F 92.6 °F 69.8 °F 55% 29.77 in - NW 5.8 mph - N/A   Unknown
7:00 PM 80.6 °F 83.2 °F 68.0 °F 65% 29.77 in - NW 4.6 mph - N/A   Unknown
8:00 PM 77.0 °F - 66.2 °F 69% 29.80 in - Calm Calm - N/A   Unknown
9:00 PM 74 °F - 66 °F 70% 29.81 in - Calm Calm - -  
9:00 PM 73.4 °F - 66.2 °F 78% 29.80 in - Calm Calm - N/A   Unknown
10:00 PM 73.4 °F - 69.8 °F 88% 29.80 in - WNW 4.6 mph - N/A   Unknown
11:00 PM 73.4 °F - 69.8 °F 88% 29.80 in - NW 3.5 mph - N/A   Unknown